Location: Chobalauni
(42.4483°N, 44.7245°E)
Time: 03:56:05
(UTC+00:00)

Daily predictions for brighter satellites

Satellite Brightness Start Highest point End
(mag) Time Altitude Azimuth Time Altitude Azimuth Time Altitude Azimuth
Cosmos 405 Rocket 3.2 00:03:12 21° WSW 00:04:24 27° WNW 00:07:00 10° NNW
BREEZE-M DEB (TANK) 3.2 00:02:23 10° W 00:04:28 18° WSW 00:04:28 18° WSW
SJ 16-02 2.2 00:03:17 17° WSW 00:05:59 35° WNW 00:09:55 10° N
Cosmos 2151 Rocket 3.9 00:03:09 10° NNW 00:07:30 49° W 00:11:36 11° SSW
IDEFIX/ARIANE 42P 4.3 00:09:12 10° NNW 00:12:47 19° WNW 00:16:21 10° WSW
Cosmos 841 Rocket 4.3 00:08:17 10° NNW 00:13:26 55° ENE 00:18:28 10° SE
Cosmos 1190 Rocket 4.1 00:12:00 13° SSW 00:16:37 70° WNW 00:21:50 10° NNE
Cosmos 2221 Rocket 3.8 00:13:04 13° SSW 00:17:04 60° W 00:21:34 10° N
Cosmos 540 Rocket 4.1 00:12:34 10° NW 00:17:09 35° WSW 00:21:42 10° SSW
Cosmos 1954 Rocket 4.0 00:13:58 12° SSW 00:18:44 79° WNW 00:23:55 10° NNE
ADEOS II 2.1 00:15:46 10° NNE 00:21:01 90° E 00:26:15 10° SSW
Cosmos 1862 3.8 00:17:50 10° S 00:21:15 50° E 00:24:42 10° NNE
USA 234 3.6 00:15:54 10° NE 00:22:21 58° SE 00:28:46 10° SSW
Cosmos 1697 Rocket 2.9 00:17:43 10° SSW 00:23:19 72° ESE 00:28:55 10° NNE
Cosmos 2227 Rocket 3.6 00:19:35 10° NNW 00:24:59 43° ENE 00:30:19 10° SE
Resurs 1-4 Rocket 2.5 00:25:50 10° N 00:30:53 49° WNW 00:35:55 10° SW
USA 281 4.2 00:25:59 10° SE 00:32:18 53° ENE 00:38:39 10° NNW
Sich 1 Rocket 4.0 00:28:54 10° NNW 00:33:16 47° W 00:37:35 10° SSW
Meteor 1-27 4.3 00:28:33 10° NNW 00:34:16 73° W 00:40:02 10° S
Cosmos 2251 Rocket 4.1 00:30:37 10° SW 00:35:40 47° WNW 00:40:51 10° N
Okean 1 Rocket 3.7 00:32:23 10° NNW 00:36:21 35° W 00:40:15 10° SSW
H-2A R/B 2.4 00:31:54 10° N 00:37:00 51° WNW 00:41:56 10° SW
Cosmos 332 Rocket 4.1 00:37:41 10° SW 00:42:20 53° WNW 00:47:00 10° N
H-2A R/B 2.5 00:39:41 10° S 00:43:24 51° W 00:47:13 10° NNW
Cosmos 1782 2.8 00:43:36 10° NNW 00:47:01 47° W 00:50:22 10° SSW
Cosmos 2058 2.8 00:43:28 10° S 00:47:20 86° E 00:51:15 10° N
CZ-2C R/B 4.1 00:43:32 10° NE 00:47:47 32° E 00:52:08 10° SSE
SL-4 R/B 4.2 00:47:14 10° NW 00:49:11 15° N 00:51:07 10° NE
BREEZE-M DEB (TANK) 4.2 00:50:00 10° WNW 01:03:16 90° NNE 01:07:08 10° ESE
